GW0658 Weather Reports


Display with metric or nautical units.
time (UTC)temp
F
wind
direction
speed
MPH
gust
MPH
rain 1hr
in
rain 24hr
in
rain mn
in
humidity
%
barometer
mb
20260901070526 58 62 1.0 2.0 0.00 0.00 0.00 58 1016.0
20260901070053 58 62 1.0 2.0 0.00 0.00 0.00 59 1016.0
20260901065526 58 61 1.0 2.0 0.00 0.00 0.00 59 1016.0
20260901065023 58 60 1.0 3.0 0.00 0.00 0.00 60 1016.0
20260901064543 58 59 1.0 3.0 0.00 0.00 0.00 60 1016.0
20260901064023 58 0 1.0 2.0 0.00 0.00 0.00 60 1016.1
20260901063523 58 0 0.0 3.0 0.00 0.00 0.00 60 1016.0
20260901063054 58 0 0.0 3.0 0.00 0.00 0.00 60 1015.9
20260901062520 58 56 0.0 0.0 0.00 0.00 0.00 60 1015.8
20260901062025 58 0 0.0 0.0 0.00 0.00 0.00 60 1016.0
20260901061558 59 0 0.0 0.0 0.00 0.00 0.00 60 1016.0
20260901061024 59 0 0.0 0.0 0.00 0.00 0.00 60 1016.0
20260901060527 59 0 0.0 0.0 0.00 0.00 0.00 60 1016.0
20260901060046 59 0 0.0 0.0 0.00 0.00 0.00 59 1016.1
20260901055521 59 0 0.0 0.0 0.00 0.00 0.00 59 1016.0
20260901055021 59 0 0.0 0.0 0.00 0.00 0.00 59 1016.0
20260901054544 59 0 0.0 0.0 0.00 0.00 0.00 59 1016.1
20260901054025 59 0 0.0 0.0 0.00 0.00 0.00 59 1016.2
20260901053525 59 0 0.0 0.0 0.00 0.00 0.00 59 1016.1
20260901053054 59 0 0.0 0.0 0.00 0.00 0.00 59 1016.2
20260901052527 59 0 0.0 0.0 0.00 0.00 0.00 59 1016.1
20260901052027 59 0 0.0 0.0 0.00 0.00 0.00 59 1016.2
20260901051544 59 0 0.0 0.0 0.00 0.00 0.00 59 1016.1
20260901051027 59 0 0.0 0.0 0.00 0.00 0.00 60 1016.1
20260901050519 59 0 0.0 0.0 0.00 0.00 0.00 60 1016.1
20260901050041 59 0 0.0 0.0 0.00 0.00 0.00 61 1016.1
20260901045522 59 0 0.0 0.0 0.00 0.00 0.00 61 1016.3
20260901045024 59 0 0.0 0.0 0.00 0.00 0.00 61 1016.2
20260901044558 59 0 0.0 0.0 0.00 0.00 0.00 61 1016.2
20260901044024 59 0 0.0 0.0 0.00 0.00 0.00 61 1016.2
20260901043524 59 0 0.0 0.0 0.00 0.00 0.00 61 1016.1
20260901043047 59 0 0.0 0.0 0.00 0.00 0.00 61 1016.1
20260901042521 59 0 0.0 0.0 0.00 0.00 0.00 60 1016.1
20260901042021 59 0 0.0 0.0 0.00 0.00 0.00 60 1016.1
20260901041541 60 0 0.0 0.0 0.00 0.00 0.00 60 1016.1
20260901041025 60 0 0.0 2.0 0.00 0.00 0.00 60 1016.0
20260901040525 60 0 0.0 2.0 0.00 0.00 0.00 60 1016.0
20260901040055 60 142 1.0 2.0 0.00 0.00 0.00 59 1015.9
20260901035525 60 142 0.0 0.0 0.00 0.00 0.00 59 1015.9
20260901035024 60 0 0.0 2.0 0.00 0.00 0.00 58 1016.0
20260901034542 60 0 0.0 2.0 0.00 0.00 0.00 59 1016.0
20260901034022 60 142 1.0 2.0 0.00 0.00 0.00 58 1015.9
20260901033520 61 142 1.0 2.0 0.00 0.00 0.00 58 1015.9
20260901033042 61 142 1.0 2.0 0.00 0.00 0.00 57 1015.9
20260901032525 61 142 0.0 2.0 0.00 0.00 0.00 57 1015.8
20260901032025 61 142 1.0 2.0 0.00 0.00 0.00 57 1015.7
20260901031545 61 142 1.0 2.0 0.00 0.00 0.00 57 1015.7
20260901031023 61 142 1.0 2.0 0.00 0.00 0.00 57 1015.7
20260901030522 62 142 1.0 2.0 0.00 0.00 0.00 56 1015.7
20260901030045 62 142 1.0 2.0 0.00 0.00 0.00 56 1015.7
20260901025522 62 150 1.0 2.0 0.00 0.00 0.00 55 1015.6
20260901025023 62 202 1.0 2.0 0.00 0.00 0.00 55 1015.5
20260901024548 63 202 1.0 2.0 0.00 0.00 0.00 54 1015.6
20260901024025 63 202 1.0 2.0 0.00 0.00 0.00 53 1015.6
20260901023524 64 225 1.0 2.0 0.00 0.00 0.00 53 1015.7
20260901023050 65 0 0.0 0.0 0.00 0.00 0.00 52 1015.7
20260901022526 65 0 0.0 0.0 0.00 0.00 0.00 53 1015.7
20260901022023 66 0 0.0 0.0 0.00 0.00 0.00 52 1015.6
20260901021604 66 0 0.0 0.0 0.00 0.00 0.00 52 1015.6
20260901021020 66 0 0.0 0.0 0.00 0.00 0.00 52 1015.7
20260901020520 66 0 0.0 0.0 0.00 0.00 0.00 50 1015.7
20260901020043 66 0 0.0 0.0 0.00 0.00 0.00 51 1015.7
20260901015526 67 0 0.0 0.0 0.00 0.00 0.00 51 1015.8
20260901015026 67 0 0.0 2.0 0.00 0.00 0.00 49 1015.8
20260901014551 67 0 0.0 4.0 0.00 0.00 0.00 48 1015.8
20260901014024 67 225 0.0 5.0 0.00 0.00 0.00 47 1015.8
20260901013524 68 232 3.0 5.0 0.00 0.00 0.00 47 1015.9
20260901013045 69 210 2.0 4.0 0.00 0.00 0.00 45 1015.9
20260901012523 70 200 2.0 4.0 0.00 0.00 0.00 43 1015.7
20260901012026 70 220 0.0 9.0 0.00 0.00 0.00 42 1015.8
20260901011541 70 207 2.0 9.0 0.00 0.00 0.00 42 1015.8
20260901011022 70 200 3.0 7.0 0.00 0.00 0.00 42 1015.8
20260901010526 70 189 3.0 7.0 0.00 0.00 0.00 41 1015.9
20260901010042 70 212 3.0 7.0 0.00 0.00 0.00 42 1015.8
20260901005521 70 190 3.0 7.0 0.00 0.00 0.00 42 1015.8
20260901005026 71 220 3.0 7.0 0.00 0.00 0.00 42 1015.8
20260901004545 71 248 2.0 7.0 0.00 0.00 0.00 42 1015.8
20260901004025 71 0 2.0 7.0 0.00 0.00 0.00 41 1015.7
20260901003525 71 198 3.0 7.0 0.00 0.00 0.00 42 1015.8
20260901003047 71 188 3.0 7.0 0.00 0.00 0.00 42 1015.9
20260901002523 71 210 2.0 6.0 0.00 0.00 0.00 42 1015.9
20260901002027 71 209 2.0 6.0 0.00 0.00 0.00 44 1015.9
20260901001607 71 188 3.0 6.0 0.00 0.00 0.00 44 1015.9
20260901001022 71 232 3.0 7.0 0.00 0.00 0.00 44 1015.9
20260901000520 71 211 3.0 8.0 0.00 0.00 0.00 43 1015.9
20260901000040 71 184 3.0 8.0 0.00 0.00 0.00 42 1016.0
20260831235525 72 235 4.0 10.0 0.00 0.00 0.00 41 1016.1
20260831235025 73 246 4.0 10.0 0.00 0.00 0.00 40 1016.0
20260831234540 74 217 3.0 6.0 0.00 0.00 0.00 38 1016.0
20260831234025 74 203 3.0 6.0 0.00 0.00 0.00 38 1016.0
20260831233522 74 246 3.0 7.0 0.00 0.00 0.00 34 1016.0
20260831233041 74 287 3.0 10.0 0.00 0.00 0.00 34 1016.0
20260831232521 74 225 3.0 10.0 0.00 0.00 0.00 34 1016.1
20260831232023 75 189 5.0 10.0 0.00 0.00 0.00 34 1016.0
20260831231556 75 186 4.0 13.0 0.00 0.00 0.00 33 1016.1
20260831231025 74 193 4.0 13.0 0.00 0.00 0.00 33 1016.2
20260831230525 75 352 3.0 12.0 0.00 0.00 0.00 34 1016.1
20260831230052 75 192 5.0 12.0 0.00 0.00 0.00 33 1016.1
20260831225523 75 207 5.0 9.0 0.00 0.00 0.00 34 1016.0
20260831225026 75 352 3.0 9.0 0.00 0.00 0.00 36 1016.2
20260831224610 75 209 3.0 8.0 0.00 0.00 0.00 37 1016.2
20260831224020 75 200 3.0 9.0 0.00 0.00 0.00 37 1016.3
20260831223528 75 218 2.0 9.0 0.00 0.00 0.00 37 1016.3
20260831223041 75 213 3.0 7.0 0.00 0.00 0.00 38 1016.2
20260831222524 75 198 3.0 8.0 0.00 0.00 0.00 38 1016.3
20260831222026 76 196 2.0 8.0 0.00 0.00 0.00 39 1016.3
20260831221549 76 176 3.0 8.0 0.00 0.00 0.00 38 1016.4
20260831221024 76 352 3.0 8.0 0.00 0.00 0.00 37 1016.4
20260831220524 76 352 3.0 9.0 0.00 0.00 0.00 37 1016.5
20260831220051 76 188 4.0 9.0 0.00 0.00 0.00 39 1016.5
20260831215523 75 232 3.0 11.0 0.00 0.00 0.00 39 1016.6
20260831215022 76 178 5.0 11.0 0.00 0.00 0.00 38 1016.6
20260831214546 76 221 4.0 9.0 0.00 0.00 0.00 40 1016.6
20260831214030 75 187 4.0 9.0 0.00 0.00 0.00 39 1016.6
20260831213525 75 247 3.0 9.0 0.00 0.00 0.00 40 1016.7
20260831213040 76 189 4.0 10.0 0.00 0.00 0.00 39 1016.6
20260831212526 76 200 4.0 10.0 0.00 0.00 0.00 38 1016.7
20260831212027 76 214 5.0 10.0 0.00 0.00 0.00 39 1016.8
20260831211602 76 192 2.0 8.0 0.00 0.00 0.00 38 1016.7
20260831211022 76 169 3.0 12.0 0.00 0.00 0.00 36 1016.6
20260831210521 76 140 4.0 12.0 0.00 0.00 0.00 37 1016.8
20260831210042 76 202 3.0 12.0 0.00 0.00 0.00 37 1016.7
20260831205525 76 199 5.0 12.0 0.00 0.00 0.00 37 1016.6
20260831205020 77 233 4.0 10.0 0.00 0.00 0.00 36 1016.6
20260831204542 77 229 3.0 10.0 0.00 0.00 0.00 36 1016.5
20260831204026 77 188 4.0 10.0 0.00 0.00 0.00 35 1016.6
20260831203524 77 225 4.0 13.0 0.00 0.00 0.00 34 1016.6
20260831203048 76 236 7.0 13.0 0.00 0.00 0.00 36 1016.6
20260831202523 77 178 4.0 11.0 0.00 0.00 0.00 35 1016.7
20260831202022 78 220 5.0 11.0 0.00 0.00 0.00 34 1016.8
20260831201541 78 173 3.0 12.0 0.00 0.00 0.00 34 1016.8
20260831201022 78 327 4.0 12.0 0.00 0.00 0.00 35 1016.9
20260831200519 78 207 5.0 12.0 0.00 0.00 0.00 34 1016.8
20260831200041 78 229 5.0 10.0 0.00 0.00 0.00 34 1016.8
20260831195524 77 211 4.0 10.0 0.00 0.00 0.00 34 1016.8
20260831195031 78 202 4.0 9.0 0.00 0.00 0.00 34 1016.8
20260831194557 77 109 3.0 9.0 0.00 0.00 0.00 34 1016.8
20260831194026 78 207 5.0 9.0 0.00 0.00 0.00 34 1016.8
20260831193522 78 202 3.0 9.0 0.00 0.00 0.00 33 1016.8
20260831193051 77 200 5.0 9.0 0.00 0.00 0.00 34 1016.8
20260831192521 77 225 4.0 9.0 0.00 0.00 0.00 35 1016.9
20260831192025 77 196 4.0 9.0 0.00 0.00 0.00 34 1017.0
20260831191548 77 198 4.0 10.0 0.00 0.00 0.00 34 1017.1
20260831191021 77 217 5.0 10.0 0.00 0.00 0.00 34 1017.2
20260831190520 77 239 3.0 8.0 0.00 0.00 0.00 35 1017.2
20260831190043 77 232 1.0 12.0 0.00 0.00 0.00 34 1017.2
20260831185525 76 5 3.0 12.0 0.00 0.00 0.00 34 1017.2
20260831185023 76 178 3.0 9.0 0.00 0.00 0.00 36 1017.3
20260831184545 77 192 3.0 9.0 0.00 0.00 0.00 35 1017.2
20260831184021 77 200 3.0 9.0 0.00 0.00 0.00 36 1017.3
20260831183523 76 202 4.0 9.0 0.00 0.00 0.00 37 1017.2
20260831183041 76 54 4.0 9.0 0.00 0.00 0.00 36 1017.2
20260831182521 76 225 2.0 8.0 0.00 0.00 0.00 36 1017.2
20260831182021 76 191 4.0 8.0 0.00 0.00 0.00 34 1017.2
20260831181540 76 201 4.0 8.0 0.00 0.00 0.00 37 1017.1
20260831181022 76 219 3.0 7.0 0.00 0.00 0.00 38 1017.1
20260831180531 75 198 1.0 7.0 0.00 0.00 0.00 38 1017.1
20260831180050 75 209 3.0 6.0 0.00 0.00 0.00 39 1017.2
20260831175524 75 205 2.0 7.0 0.00 0.00 0.00 38 1017.1
20260831175024 75 199 2.0 7.0 0.00 0.00 0.00 38 1017.1
20260831174545 75 233 3.0 6.0 0.00 0.00 0.00 38 1017.1
20260831174021 74 236 1.0 6.0 0.00 0.00 0.00 38 1017.1
20260831173520 74 200 3.0 6.0 0.00 0.00 0.00 41 1017.1
20260831173046 73 286 1.0 6.0 0.00 0.00 0.00 39 1017.0
20260831172521 73 205 3.0 6.0 0.00 0.00 0.00 40 1017.1
20260831172024 73 193 3.0 7.0 0.00 0.00 0.00 40 1017.0
20260831171540 73 188 2.0 8.0 0.00 0.00 0.00 41 1017.1
20260831171024 72 177 3.0 8.0 0.00 0.00 0.00 40 1017.1
20260831170524 73 187 3.0 7.0 0.00 0.00 0.00 40 1017.0
20260831170046 73 199 2.0 7.0 0.00 0.00 0.00 40 1016.9
20260831165523 73 195 2.0 6.0 0.00 0.00 0.00 39 1016.8
20260831165022 73 144 2.0 6.0 0.00 0.00 0.00 38 1016.8
20260831164546 72 200 2.0 5.0 0.00 0.00 0.00 39 1016.8
20260831164020 72 140 0.0 3.0 0.00 0.00 0.00 38 1016.7
20260831163524 71 192 1.0 4.0 0.00 0.00 0.00 39 1016.8
20260831163043 71 234 1.0 4.0 0.00 0.00 0.00 39 1016.7
20260831162527 70 194 0.0 4.0 0.00 0.00 0.00 39 1016.6
20260831162020 70 194 1.0 5.0 0.00 0.00 0.00 42 1016.7
20260831161550 69 231 1.0 5.0 0.00 0.00 0.00 44 1016.7
20260831161024 69 187 1.0 4.0 0.00 0.00 0.00 42 1016.7
20260831160523 68 0 1.0 4.0 0.00 0.00 0.00 44 1016.8
20260831160045 67 200 1.0 4.0 0.00 0.00 0.00 44 1016.7
20260831155520 67 213 0.0 2.0 0.00 0.00 0.00 47 1016.7
20260831155026 67 0 0.0 2.0 0.00 0.00 0.00 49 1016.8
20260831154621 66 0 0.0 4.0 0.00 0.00 0.00 49 1016.7
20260831154021 66 0 0.0 4.0 0.00 0.00 0.00 48 1016.8
20260831153526 65 0 0.0 3.0 0.00 0.00 0.00 50 1016.8
20260831153041 65 0 1.0 3.0 0.00 0.00 0.00 51 1016.7
20260831152521 64 0 0.0 2.0 0.00 0.00 0.00 51 1016.8
20260831152024 64 0 0.0 2.0 0.00 0.00 0.00 54 1016.8
20260831151552 63 76 0.0 2.0 0.00 0.00 0.00 54 1016.7
20260831151020 63 0 0.0 0.0 0.00 0.00 0.00 56 1016.6
20260831150521 63 0 0.0 0.0 0.00 0.00 0.00 55 1016.6
20260831150041 63 0 0.0 0.0 0.00 0.00 0.00 55 1016.6
20260831145524 63 0 0.0 0.0 0.00 0.00 0.00 55 1016.6
20260831145027 63 0 0.0 0.0 0.00 0.00 0.00 54 1016.6
20260831144547 63 0 0.0 3.0 0.00 0.00 0.00 54 1016.6
20260831144024 63 0 0.0 3.0 0.00 0.00 0.00 54 1016.5
20260831143523 63 0 0.0 3.0 0.00 0.00 0.00 53 1016.6
20260831143045 63 0 0.0 0.0 0.00 0.00 0.00 53 1016.6
20260831142520 63 0 0.0 0.0 0.00 0.00 0.00 52 1016.5
20260831142019 63 0 0.0 0.0 0.00 0.00 0.00 52 1016.5
20260831141541 63 0 0.0 0.0 0.00 0.00 0.00 52 1016.5
20260831141021 63 0 0.0 0.0 0.00 0.00 0.00 52 1016.5
20260831140524 63 0 0.0 0.0 0.00 0.00 0.00 51 1016.4
20260831140041 63 0 0.0 0.0 0.00 0.00 0.00 50 1016.5
20260831135526 63 0 0.0 0.0 0.00 0.00 0.00 50 1016.5
20260831135025 63 0 0.0 0.0 0.00 0.00 0.00 49 1016.4
20260831134550 63 0 0.0 2.0 0.00 0.00 0.00 49 1016.4
20260831134023 63 0 0.0 2.0 0.00 0.00 0.00 49 1016.3
20260831133523 63 68 1.0 2.0 0.00 0.00 0.00 49 1016.3
20260831133043 63 68 1.0 2.0 0.00 0.00 0.00 49 1016.3
20260831132525 63 68 1.0 2.0 0.00 0.00 0.00 49 1016.3
20260831132027 64 69 1.0 2.0 0.00 0.00 0.00 49 1016.1
20260831131544 63 0 1.0 2.0 0.00 0.00 0.00 49 1016.2
20260831131021 63 78 1.0 2.0 0.00 0.00 0.00 49 1016.1
20260831130522 63 67 1.0 2.0 0.00 0.00 0.00 50 1016.1
20260831130045 63 0 1.0 3.0 0.00 0.00 0.00 50 1016.1
20260831125525 63 67 1.0 3.0 0.00 0.00 0.00 50 1016.0
20260831125021 63 64 1.0 3.0 0.00 0.00 0.00 50 1016.1
20260831124548 63 59 1.0 3.0 0.00 0.00 0.00 50 1016.2
20260831124020 63 78 1.0 3.0 0.00 0.00 0.00 50 1016.2
20260831123522 63 63 1.0 3.0 0.00 0.00 0.00 50 1016.0
20260831123041 63 65 1.0 3.0 0.00 0.00 0.00 50 1016.1
20260831122527 63 60 1.0 3.0 0.00 0.00 0.00 50 1016.0
20260831122021 63 61 1.0 3.0 0.00 0.00 0.00 49 1016.0
20260831121550 63 61 1.0 3.0 0.00 0.00 0.00 49 1016.0
20260831121022 64 62 1.0 3.0 0.00 0.00 0.00 49 1016.0
20260831120523 64 68 1.0 3.0 0.00 0.00 0.00 48 1015.9
20260831120043 64 0 0.0 0.0 0.00 0.00 0.00 48 1016.0
20260831115524 64 0 0.0 0.0 0.00 0.00 0.00 48 1016.1
20260831115022 64 0 0.0 0.0 0.00 0.00 0.00 48 1016.0
20260831114542 64 0 0.0 0.0 0.00 0.00 0.00 48 1016.1
20260831114025 64 0 0.0 0.0 0.00 0.00 0.00 48 1016.2
20260831113524 64 0 0.0 0.0 0.00 0.00 0.00 48 1016.2
20260831113050 64 0 0.0 0.0 0.00 0.00 0.00 48 1016.2
20260831112523 64 0 0.0 0.0 0.00 0.00 0.00 48 1016.2
20260831112022 64 0 0.0 0.0 0.00 0.00 0.00 49 1016.2
20260831111541 64 0 0.0 0.0 0.00 0.00 0.00 49 1016.2
20260831111027 64 0 0.0 0.0 0.00 0.00 0.00 49 1016.2
20260831110523 64 0 0.0 0.0 0.00 0.00 0.00 49 1016.2
20260831110041 64 0 0.0 0.0 0.00 0.00 0.00 49 1016.2
20260831105524 64 0 0.0 0.0 0.00 0.00 0.00 49 1016.1
20260831105023 64 0 0.0 0.0 0.00 0.00 0.00 49 1016.2
20260831104546 64 0 0.0 0.0 0.00 0.00 0.00 49 1016.2
20260831104022 64 0 0.0 0.0 0.00 0.00 0.00 49 1016.1
20260831103521 64 0 0.0 0.0 0.00 0.00 0.00 49 1016.1
20260831103046 65 0 0.0 0.0 0.00 0.00 0.00 49 1016.2
20260831102520 65 0 0.0 0.0 0.00 0.00 0.00 49 1016.2
20260831102020 64 0 0.0 0.0 0.00 0.00 0.00 49 1016.2
20260831101541 64 0 0.0 0.0 0.00 0.00 0.00 49 1016.3
20260831101024 64 0 0.0 0.0 0.00 0.00 0.00 49 1016.2
20260831100522 64 0 0.0 0.0 0.00 0.00 0.00 49 1016.2
20260831095523 64 0 0.0 0.0 0.00 0.00 0.00 50 1016.1
20260831095028 64 0 0.0 0.0 0.00 0.00 0.00 50 1016.2
20260831094541 64 0 0.0 0.0 0.00 0.00 0.00 50 1016.2
20260831094019 64 0 0.0 0.0 0.00 0.00 0.00 50 1016.2
20260831093520 64 0 0.0 0.0 0.00 0.00 0.00 50 1016.2
20260831093049 64 0 0.0 0.0 0.00 0.00 0.00 50 1016.2
20260831092522 64 0 0.0 2.0 0.00 0.00 0.00 50 1016.1
20260831092026 64 0 0.0 2.0 0.00 0.00 0.00 50 1016.2
20260831091544 64 0 0.0 0.0 0.00 0.00 0.00 50 1016.2
20260831091022 65 0 0.0 0.0 0.00 0.00 0.00 50 1016.2
20260831090525 65 0 0.0 0.0 0.00 0.00 0.00 50 1016.2
20260831090043 65 0 0.0 2.0 0.00 0.00 0.00 50 1016.2
20260831085523 64 0 0.0 3.0 0.00 0.00 0.00 50 1016.3
20260831085028 64 0 1.0 3.0 0.00 0.00 0.00 50 1016.4
20260831084547 64 60 0.0 3.0 0.00 0.00 0.00 51 1016.3
20260831084020 64 68 1.0 3.0 0.00 0.00 0.00 51 1016.3
20260831083519 64 73 1.0 3.0 0.00 0.00 0.00 51 1016.4
20260831083045 64 68 2.0 3.0 0.00 0.00 0.00 51 1016.4
20260831082525 64 67 2.0 3.0 0.00 0.00 0.00 51 1016.5
20260831082024 64 63 1.0 3.0 0.00 0.00 0.00 51 1016.6
20260831081541 64 70 1.0 3.0 0.00 0.00 0.00 51 1016.6
20260831081019 64 70 0.0 2.0 0.00 0.00 0.00 51 1016.6
20260831080521 64 0 0.0 0.0 0.00 0.00 0.00 52 1016.6
20260831080042 64 0 0.0 0.0 0.00 0.00 0.00 52 1016.6
20260831075519 64 0 0.0 0.0 0.00 0.00 0.00 52 1016.7
20260831075026 64 0 0.0 0.0 0.00 0.00 0.00 52 1016.8
20260831074542 64 0 0.0 0.0 0.00 0.00 0.00 52 1016.8
20260831074026 64 0 0.0 0.0 0.00 0.00 0.00 52 1016.8
20260831073524 64 0 0.0 0.0 0.00 0.00 0.00 52 1016.7
20260831073048 64 0 0.0 2.0 0.00 0.00 0.00 53 1016.7
20260831072523 64 0 0.0 2.0 0.00 0.00 0.00 53 1016.7
20260831072021 64 55 1.0 2.0 0.00 0.00 0.00 53 1016.6
20260831071603 64 55 1.0 2.0 0.00 0.00 0.00 53 1016.7
20260831071020 64 55 1.0 2.0 0.00 0.00 0.00 53 1016.7